TimeAST,TemperatureF,Dew PointF,Humidity,Sea Level PressureIn,VisibilityMPH,Wind Direction,Wind SpeedMPH,Gust SpeedMPH,PrecipitationIn,Events,Conditions,WindDirDegrees,DateUTC
12:58 AM,11.1,-7.8,43,29.67,6.2,East,6.9,-,N/A,,Clear,100,2013-01-21 04:58:00
1:58 AM,10.4,-4.4,51,29.68,6.2,East,9.2,-,N/A,,Clear,80,2013-01-21 05:58:00
2:58 AM,7.5,-3.6,60,29.67,6.2,ESE,4.6,-,N/A,,Clear,110,2013-01-21 06:58:00
3:58 AM,8.1,-3.3,60,29.67,6.2,ESE,12.7,-,N/A,,Clear,110,2013-01-21 07:58:00
4:58 AM,6.8,-4.0,61,29.68,6.2,East,10.4,-,N/A,,Clear,80,2013-01-21 08:58:00
5:58 AM,10.9,-0.6,60,29.68,6.2,SE,5.8,-,N/A,,Clear,130,2013-01-21 09:58:00
6:58 AM,10.4,-0.4,62,29.67,6.2,East,9.2,-,N/A,,Clear,100,2013-01-21 10:58:00
7:58 AM,9.0,-2.2,61,29.66,6.2,East,11.5,-,N/A,,Clear,80,2013-01-21 11:58:00
8:58 AM,6.3,-4.7,61,29.66,6.2,East,11.5,-,N/A,,Clear,90,2013-01-21 12:58:00
9:58 AM,8.1,-2.6,62,29.65,6.2,East,10.4,-,N/A,,Clear,90,2013-01-21 13:58:00
10:58 AM,7.5,-2.9,62,29.64,6.2,East,16.1,-,N/A,,Clear,90,2013-01-21 14:58:00
11:58 AM,5.2,-4.7,64,29.63,6.2,Calm,Calm,-,N/A,,Clear,0,2013-01-21 15:58:00
12:58 PM,2.8,-5.6,68,29.62,6.2,NE,9.2,-,N/A,,Clear,50,2013-01-21 16:58:00
1:58 PM,7.9,-2.0,64,29.63,6.2,East,8.1,-,N/A,,Clear,80,2013-01-21 17:58:00
2:58 PM,7.3,-3.5,61,29.65,6.2,ESE,12.7,-,N/A,,Clear,110,2013-01-21 18:58:00
3:58 PM,12.9,-1.1,54,29.66,6.2,East,9.2,-,N/A,,Clear,90,2013-01-21 19:58:00
4:26 PM,14.0,-0.4,53,29.70,6.2,ENE,11.5,-,N/A,,Clear,60,2013-01-21 20:26:00
4:58 PM,13.5,0.3,56,29.68,6.2,East,17.3,-,N/A,,Clear,90,2013-01-21 20:58:00
5:58 PM,21.2,3.7,47,29.70,6.2,NE,5.8,-,N/A,,Clear,50,2013-01-21 21:58:00
6:58 PM,19.6,2.5,48,29.73,6.2,East,9.2,-,N/A,,Clear,100,2013-01-21 22:58:00
7:58 PM,18.5,5.2,56,29.74,6.2,ESE,8.1,-,N/A,,Clear,120,2013-01-21 23:58:00
8:58 PM,15.1,2.3,57,29.75,6.2,North,2.3,-,N/A,,Clear,360,2013-01-22 00:58:00
9:58 PM,12.0,-0.0,59,29.77,6.2,Calm,Calm,-,N/A,,Clear,0,2013-01-22 01:58:00
10:58 PM,17.4,3.6,55,29.79,6.2,West,3.5,-,N/A,,Clear,270,2013-01-22 02:58:00
11:58 PM,8.4,-1.5,64,29.80,6.2,ENE,8.1,-,N/A,,Clear,70,2013-01-22 03:58:00